DW2182 Weather Reports


time (UTC)temp
C
wind
direction
speed
KPH
gust
KPH
rain 1hr
cm
rain 24hr
cm
rain mn
cm
humidity
%
barometer
mb
20260903213517 31 90 8.0 14.5 0.00 0.18 0.18 69 1006.7
20260903212536 31 90 9.7 24.1 0.00 0.18 0.18 67 1007.0
20260903211556 31 90 11.3 16.1 0.00 0.18 0.18 66 1007.2
20260903210537 31 90 12.9 20.9 0.00 0.18 0.18 67 1007.6
20260903205537 31 90 12.9 19.3 0.00 0.18 0.18 67 1007.6
20260903204536 30 90 14.5 20.9 0.00 0.18 0.18 67 1007.7
20260903203516 30 90 12.9 22.5 0.00 0.18 0.18 68 1007.5
20260903202516 30 90 9.7 19.3 0.00 0.18 0.18 68 1007.5
20260903201516 30 90 14.5 30.6 0.00 0.18 0.18 65 1007.5
20260903200517 31 90 14.5 25.7 0.00 0.18 0.18 65 1007.9
20260903195516 31 90 16.1 29.0 0.00 0.18 0.18 63 1007.5
20260903194517 31 90 19.3 32.2 0.00 0.18 0.18 62 1007.8
20260903193516 31 90 14.5 25.7 0.00 0.18 0.18 66 1007.6
20260903192518 31 90 14.5 24.1 0.00 0.18 0.18 64 1007.5
20260903191517 31 90 20.9 33.8 0.00 0.18 0.18 62 1007.6
20260903190516 31 90 19.3 30.6 0.00 0.18 0.18 63 1007.7
20260903185516 31 90 20.9 41.8 0.00 0.18 0.18 64 1007.9
20260903184516 30 90 19.3 38.6 0.00 0.18 0.18 65 1007.7
20260903183516 31 90 19.3 30.6 0.00 0.18 0.18 65 1008.0
20260903182517 31 90 17.7 32.2 0.00 0.18 0.18 66 1008.0
20260903181516 30 90 16.1 30.6 0.00 0.18 0.18 67 1008.2
20260903180516 30 90 17.7 27.4 0.00 0.18 0.18 69 1008.4
20260903175516 29 90 14.5 20.9 0.00 0.18 0.18 71 1008.3
20260903174537 28 90 17.7 29.0 0.00 0.18 0.18 73 1008.3
20260903173516 28 90 12.9 25.7 0.00 0.18 0.18 74 1008.4
20260903172516 27 90 14.5 20.9 0.00 0.18 0.18 74 1008.4
20260903171516 26 90 16.1 25.7 0.00 0.18 0.18 75 1008.4
20260903170516 27 90 11.3 24.1 0.03 0.18 0.18 74 1008.5
20260903165516 28 90 14.5 25.7 0.03 0.18 0.18 72 1008.7
20260903164516 27 90 14.5 29.0 0.03 0.18 0.18 74 1008.7
20260903163557 27 90 12.9 24.1 0.03 0.20 0.18 73 1008.7
20260903162536 26 90 9.7 19.3 0.03 0.20 0.18 75 1008.6
20260903161516 28 90 12.9 25.7 0.03 0.20 0.18 71 1008.8
20260903160516 28 90 16.1 32.2 0.00 0.18 0.15 71 1008.9
20260903155517 28 90 17.7 33.8 0.00 0.18 0.15 72 1009.0
20260903154516 27 90 12.9 25.7 0.00 0.18 0.15 74 1008.9
20260903153516 27 90 14.5 27.4 0.00 0.18 0.15 76 1009.0
20260903152516 27 90 11.3 30.6 0.00 0.18 0.15 77 1009.0
20260903151536 26 90 12.9 25.7 0.00 0.18 0.15 79 1008.9
20260903150536 26 68 8.0 19.3 0.00 0.18 0.15 81 1009.1
20260903145516 26 90 9.7 17.7 0.00 0.20 0.15 82 1009.2
20260903144516 25 90 9.7 24.1 0.00 0.20 0.15 82 1009.3
20260903143516 25 90 9.7 19.3 0.00 0.20 0.15 82 1009.5
20260903142516 25 68 6.4 14.5 0.00 0.20 0.15 81 1009.2
20260903141516 25 68 4.8 16.1 0.00 0.20 0.15 82 1009.1
20260903140516 25 68 4.8 12.9 0.00 0.20 0.15 81 1009.0
20260903135556 24 68 4.8 16.1 0.03 0.20 0.15 81 1009.0
20260903134516 23 68 3.2 16.1 0.03 0.20 0.15 83 1008.9
20260903133516 23 68 3.2 6.4 0.03 0.20 0.15 84 1009.0
20260903132516 22 68 3.2 9.7 0.03 0.23 0.15 86 1009.0
20260903131516 22 68 3.2 8.0 0.03 0.23 0.15 86 1009.1
20260903130536 22 68 3.2 8.0 0.03 0.23 0.15 86 1009.1
20260903125517 22 90 3.2 9.7 0.00 0.20 0.13 87 1009.2
20260903124516 22 45 3.2 6.4 0.00 0.20 0.13 87 1009.2
20260903123516 22 68 3.2 11.3 0.03 0.20 0.13 88 1009.0
20260903122516 22 45 4.8 8.0 0.03 0.20 0.13 87 1009.0
20260903121516 22 68 3.2 8.0 0.03 0.20 0.13 87 1009.1
20260903120516 22 90 4.8 12.9 0.03 0.23 0.13 88 1009.0
20260903115517 21 45 3.2 4.8 0.03 0.23 0.13 89 1008.8
20260903114516 21 68 1.6 8.0 0.03 0.23 0.13 90 1008.8
20260903113516 21 68 4.8 12.9 0.00 0.20 0.10 89 1009.0
20260903112516 21 90 3.2 8.0 0.03 0.20 0.10 89 1009.2
20260903111516 21 68 3.2 6.4 0.03 0.23 0.10 90 1008.9
20260903110516 21 68 3.2 9.7 0.03 0.23 0.10 91 1008.7
20260903105536 21 68 1.6 4.8 0.05 0.23 0.10 91 1009.1
20260903104516 21 45 1.6 4.8 0.05 0.25 0.10 92 1009.4
20260903103516 21 0.0 3.2 0.08 0.25 0.10 91 1009.5
20260903102516 21 90 1.6 3.2 0.08 0.23 0.08 90 1009.5
20260903101516 21 68 4.8 14.5 0.08 0.25 0.08 90 1009.3
20260903100516 21 90 6.4 14.5 0.08 0.25 0.08 90 1009.4
20260903095556 21 90 4.8 12.9 0.05 0.25 0.05 92 1009.5
20260903094516 22 68 3.2 12.9 0.05 0.25 0.05 91 1009.4
20260903093516 23 90 9.7 16.1 0.03 0.25 0.03 88 1009.8
20260903092516 23 90 1.6 4.8 0.00 0.25 0.00 89 1010.1
20260903091516 23 90 4.8 14.5 0.00 0.25 0.00 90 1010.0
20260903090516 23 90 9.7 14.5 0.00 0.28 0.00 92 1010.4
20260903085516 23 90 8.0 12.9 0.00 0.30 0.00 93 1010.1
20260903084516 23 90 4.8 11.3 0.00 0.33 0.00 94 1010.1
20260903083515 23 90 6.4 14.5 0.00 0.38 0.00 94 1010.0
20260903082516 23 90 6.4 11.3 0.00 0.41 0.00 95 1010.1
20260903081516 23 90 6.4 11.3 0.00 0.43 0.00 95 1009.9
20260903080515 23 0.0 0.0 0.00 0.48 0.00 95 1009.3
20260903075516 23 0.0 0.0 0.00 0.53 0.00 95 1009.5
20260903074516 23 0.0 0.0 0.00 0.58 0.00 95 1009.5
20260903073515 23 0.0 0.0 0.00 0.64 0.00 95 1009.5
20260903072515 23 0.0 0.0 0.00 0.69 0.00 95 1009.6
20260903071516 23 0.0 0.0 0.00 0.74 0.00 95 1009.7
20260903070517 23 0.0 0.0 0.00 0.81 0.00 95 1009.7
20260903065516 23 0.0 0.0 0.00 0.89 0.00 94 1009.7
20260903064518 23 0.0 0.0 0.00 0.99 0.00 95 1009.8
20260903063516 23 0.0 0.0 0.00 1.07 0.00 95 1009.8
20260903062517 23 0.0 0.0 0.00 1.17 0.00 95 1009.7
20260903061516 23 0.0 0.0 0.00 1.27 0.00 94 1009.6
20260903060518 23 0.0 0.0 0.00 1.37 0.00 94 1009.5
20260903055518 23 0.0 0.0 0.00 1.47 0.00 94 1009.6
20260903054516 23 0.0 0.0 0.00 1.57 0.00 94 1009.6
20260903053517 23 0.0 0.0 0.00 1.68 0.00 94 1009.8
20260903052517 23 0.0 0.0 0.00 1.78 0.00 93 1009.8
20260903051517 23 0.0 0.0 0.00 1.93 0.00 93 1009.8
20260903050517 23 0.0 0.0 0.00 2.11 0.00 92 1009.9
20260903045516 23 0.0 0.0 0.00 2.24 2.18 92 1009.8
20260903044515 24 0.0 0.0 0.00 2.31 2.18 92 1009.8
20260903043516 24 0.0 0.0 0.00 2.44 2.18 92 1009.9
20260903042536 24 0.0 0.0 0.00 2.72 2.18 92 1009.8
20260903041516 24 0.0 0.0 0.00 2.77 2.18 92 1009.9
20260903040516 24 0.0 0.0 0.00 2.77 2.18 91 1009.8
20260903035536 24 0.0 0.0 0.00 2.77 2.18 91 1010.0
20260903034516 25 0.0 0.0 0.00 2.77 2.18 91 1010.0
20260903033515 25 0.0 0.0 0.00 2.77 2.18 90 1010.1
20260903032515 25 0.0 0.0 0.00 2.77 2.18 90 1010.1
20260903031516 25 0.0 0.0 0.00 2.77 2.18 90 1010.0
20260903030538 25 0.0 0.0 0.00 2.77 2.18 89 1010.0
20260903025518 25 0.0 0.0 0.00 2.77 2.18 89 1010.0
20260903024517 25 0.0 1.6 0.00 2.77 2.18 88 1010.0
20260903023518 25 0.0 1.6 0.00 2.77 2.18 88 1009.9
20260903022518 25 0.0 1.6 0.00 2.77 2.18 88 1009.9
20260903021517 25 0.0 0.0 0.00 2.77 2.18 87 1009.8
20260903020517 26 0.0 0.0 0.00 2.77 2.18 86 1009.9
20260903015518 26 0.0 0.0 0.00 2.77 2.18 86 1009.7
20260903014517 26 0.0 0.0 0.00 2.77 2.18 85 1009.6
20260903013517 26 0.0 0.0 0.00 2.77 2.18 84 1009.5
20260903012538 26 0.0 0.0 0.00 2.77 2.18 84 1009.4
20260903011516 26 0.0 0.0 0.00 2.77 2.18 83 1009.4
20260903010517 27 0.0 0.0 0.00 2.77 2.18 82 1009.3
20260903005517 27 0.0 0.0 0.00 2.77 2.18 81 1009.2
20260903004537 27 0.0 1.6 0.00 2.77 2.18 79 1009.3
20260903003517 27 0.0 0.0 0.00 2.77 2.18 78 1009.4
20260903002517 28 0.0 1.6 0.00 2.77 2.18 77 1009.5
20260903001517 28 0.0 3.2 0.00 2.77 2.18 76 1009.4
20260903000537 28 0.0 1.6 0.00 2.77 2.18 75 1009.6
20260902235518 29 45 1.6 3.2 0.00 2.77 2.18 72 1009.6
20260902234517 29 0.0 4.8 0.00 2.77 2.18 71 1009.7
20260902233517 29 68 1.6 3.2 0.00 2.77 2.18 70 1009.5
20260902232517 30 68 3.2 6.4 0.00 2.77 2.18 69 1009.5
20260902231537 30 90 3.2 6.4 0.00 2.77 2.18 67 1009.7
20260902230517 30 68 4.8 14.5 0.00 2.77 2.18 68 1009.7
20260902225517 30 90 6.4 11.3 0.00 2.77 2.18 67 1009.7
20260902224517 30 68 4.8 14.5 0.00 2.77 2.18 66 1009.6
20260902223517 31 90 6.4 14.5 0.00 2.77 2.18 66 1009.7
20260902222517 31 90 3.2 8.0 0.00 2.77 2.18 65 1009.8
20260902221517 31 68 3.2 11.3 0.00 2.77 2.18 64 1009.8
20260902220518 31 90 3.2 9.7 0.00 2.77 2.18 64 1009.8
20260902215517 31 90 4.8 12.9 0.00 2.77 2.18 63 1009.9
20260902214517 31 90 4.8 14.5 0.00 2.77 2.18 61 1010.0